Weather History for Palestine, TX

Change the Weather History Date:

Friday, March 15, 2013

  Actual Average (KTYR) Record (KTYR)
Temperature  
Mean Temperature 63 °F 57 °F  
Max Temperature 78 °F 67 °F 88 °F (1967)
Min Temperature 48 °F 47 °F 24 °F (1954)
Degree Days  
Heating Degree Days 2 9  
Month to date heating degree days 153  
Since 1 July heating degree days 2045  
Cooling Degree Days 0 1  
Month to date cooling degree days 3  
Year to date cooling degree days 15  
Growing Degree Days 13 (Base 50)    
Moisture  
Dew Point 47 °F    
Average Humidity 57    
Maximum Humidity 87    
Minimum Humidity 29    
Precipitation  
Precipitation 0.00 in 0.14 in 3.00 in (1950)
Month to date precipitation 2.07  
Year to date precipitation 8.94  
Snow  
Snow 0.00 in - - ()
Month to date snowfall  
Since 1 July snowfall  
Snow Depth -    
Sea Level Pressure  
Sea Level Pressure 30.14 in    
Wind  
Wind Speed 8 mph (South)    
Max Wind Speed 17 mph    
Max Gust Speed 25 mph    
Visibility 10 miles    
Events      
T = Trace of Precipitation, MM = Missing Value Source: NWS Daily Summary

Daily Weather History Graph

Daily Weather History Graph

Search for Another Location

Airport:

Trip Planner

Search our weather history database for the weather conditions in past years. The results will help you decide how hot, cold, wet, or windy it might be!

Date:

Astronomy

Mar. 15, 2013 Rise Set
Actual Time 7:32 AM CDT 7:31 PM CDT
Civil Twilight 7:08 AM CDT 7:55 PM CDT
Nautical Twilight 6:40 AM CDT 8:23 PM CDT
Astronomical Twilight 6:11 AM CDT 8:52 PM CDT
Moon 9:39 AM CDT (3/15) 11:28 PM CDT (3/15)
Length of Visible Light 12h 47m
Length of Day
11h 58m
Waxing Crescent, 15% of the Moon is Illuminated
Mar 15
Waxing Crescent
Mar 19
First Quarter
Mar 27
Full
Apr 2
Last Quarter
Apr 10
New

Hourly Weather History & Observations

Time (CDT) Temp. Dew Point Humidity Pressure Visibility Wind Dir Wind Speed Gust Speed Precip Events Conditions
12:15 AM 59.0 °F 44.6 °F 59% 30.26 in 10.0 mi SSE 5.8 mph - N/A   Clear
12:35 AM 58.5 °F 44.8 °F 60% 30.26 in 10.0 mi SE 4.6 mph - N/A   Clear
12:55 AM 58.5 °F 45.1 °F 61% 30.26 in 10.0 mi SSE 6.9 mph - N/A   Clear
1:35 AM 57.9 °F 45.9 °F 64% 30.25 in 10.0 mi SSE 8.1 mph - N/A   Clear
1:55 AM 57.6 °F 46.2 °F 66% 30.25 in 10.0 mi SSE 8.1 mph - N/A   Clear
2:15 AM 56.8 °F 46.2 °F 68% 30.25 in 10.0 mi South 6.9 mph - N/A   Clear
2:35 AM 56.5 °F 46.4 °F 69% 30.24 in 10.0 mi South 8.1 mph - N/A   Clear
2:55 AM 55.6 °F 46.4 °F 71% 30.24 in 10.0 mi SSE 4.6 mph - N/A   Clear
3:15 AM 55.4 °F 46.4 °F 72% 30.24 in 10.0 mi SSE 6.9 mph - N/A   Clear
3:35 AM 54.7 °F 46.6 °F 74% 30.23 in 10.0 mi SSE 8.1 mph - N/A   Clear
3:55 AM 54.1 °F 46.4 °F 75% 30.23 in 10.0 mi South 5.8 mph - N/A   Clear
4:15 AM 54.1 °F 46.4 °F 75% 30.23 in 10.0 mi South 6.9 mph - N/A   Clear
4:35 AM 53.6 °F 46.4 °F 77% 30.22 in 10.0 mi South 5.8 mph - N/A   Clear
4:55 AM 52.9 °F 46.2 °F 78% 30.22 in 10.0 mi South 6.9 mph - N/A   Clear
5:15 AM 52.5 °F 46.0 °F 79% 30.22 in 10.0 mi South 5.8 mph - N/A   Clear
5:35 AM 52.2 °F 45.9 °F 79% 30.22 in 10.0 mi SSE 4.6 mph - N/A   Clear
5:55 AM 51.6 °F 45.7 °F 80% 30.22 in 10.0 mi SSE 4.6 mph - N/A   Clear
6:15 AM 51.1 °F 45.7 °F 82% 30.21 in 10.0 mi SSE 4.6 mph - N/A   Clear
6:35 AM 50.5 °F 45.5 °F 83% 30.22 in 10.0 mi SSE 4.6 mph - N/A   Clear
6:55 AM 50.0 °F 45.5 °F 85% 30.22 in 10.0 mi Calm Calm - N/A   Clear
7:15 AM 49.8 °F 45.5 °F 85% 30.22 in 10.0 mi SSE 3.5 mph - N/A   Clear
7:35 AM 49.1 °F 45.1 °F 86% 30.22 in 10.0 mi SSE 3.5 mph - N/A   Clear
7:55 AM 48.6 °F 45.0 °F 87% 30.22 in 10.0 mi SE 4.6 mph - N/A   Clear
8:15 AM 49.3 °F 45.7 °F 87% 30.22 in 10.0 mi SSE 3.5 mph - N/A   Clear
8:35 AM 51.1 °F 46.4 °F 84% 30.22 in 10.0 mi SE 4.6 mph - N/A   Clear
8:55 AM 53.2 °F 47.3 °F 80% 30.23 in 10.0 mi SSE 5.8 mph - N/A   Clear
9:15 AM 55.9 °F 48.6 °F 76% 30.23 in 10.0 mi South 8.1 mph - N/A   Clear
9:35 AM 58.5 °F 50.2 °F 74% 30.23 in 10.0 mi South 6.9 mph - N/A   Clear
9:55 AM 59.0 °F 50.4 °F 73% 30.23 in 10.0 mi South 11.5 mph - N/A   Clear
10:55 AM 64.4 °F 52.3 °F 65% 30.23 in 10.0 mi SSW 9.2 mph - N/A   Clear
11:15 AM 65.8 °F 52.2 °F 61% 30.22 in 10.0 mi South 12.7 mph - N/A   Clear
11:35 AM 67.3 °F 52.5 °F 59% 30.21 in 10.0 mi South 10.4 mph - N/A   Clear
11:55 AM 68.4 °F 52.7 °F 57% 30.21 in 10.0 mi South 12.7 mph - N/A   Clear
12:15 PM 69.6 °F 52.9 °F 55% 30.20 in 10.0 mi South 15.0 mph 19.6 mph N/A   Clear
12:35 PM 71.8 °F 52.5 °F 51% 30.19 in 10.0 mi South 13.8 mph 19.6 mph N/A   Clear
12:55 PM 72.5 °F 52.5 °F 49% 30.18 in 10.0 mi South 11.5 mph 19.6 mph N/A   Clear
1:15 PM 73.0 °F 52.5 °F 48% 30.16 in 10.0 mi South 13.8 mph 23.0 mph N/A   Clear
1:35 PM 73.9 °F 51.8 °F 46% 30.15 in 10.0 mi South 11.5 mph 20.7 mph N/A   Clear
1:55 PM 75.2 °F 51.8 °F 44% 30.13 in 10.0 mi South 15.0 mph 20.7 mph N/A   Clear
2:15 PM 75.4 °F 52.0 °F 44% 30.12 in 10.0 mi South 10.4 mph 19.6 mph N/A   Clear
2:35 PM 76.1 °F 51.1 °F 41% 30.11 in 10.0 mi SSE 11.5 mph 19.6 mph N/A   Clear
2:55 PM 76.1 °F 49.8 °F 40% 30.10 in 10.0 mi South 11.5 mph 21.9 mph N/A   Clear
3:15 PM 76.8 °F 48.9 °F 37% 30.09 in 10.0 mi South 13.8 mph 23.0 mph N/A   Clear
3:35 PM 77.2 °F 47.7 °F 35% 30.08 in 10.0 mi South 17.3 mph 24.2 mph N/A   Clear
3:55 PM 77.9 °F 45.7 °F 32% 30.08 in 10.0 mi South 11.5 mph - N/A   Clear
4:15 PM 77.5 °F 44.4 °F 31% 30.07 in 10.0 mi SSW 13.8 mph 23.0 mph N/A   Clear
4:35 PM 77.7 °F 43.7 °F 30% 30.07 in 10.0 mi South 13.8 mph 25.3 mph N/A   Clear
4:55 PM 78.1 °F 44.1 °F 30% 30.06 in 10.0 mi South 15.0 mph 24.2 mph N/A   Clear
5:15 PM 78.3 °F 43.2 °F 29% 30.05 in 10.0 mi South 9.2 mph 18.4 mph N/A   Clear
5:35 PM 77.9 °F 43.2 °F 29% 30.05 in 10.0 mi South 11.5 mph 20.7 mph N/A   Clear
5:55 PM 77.0 °F 43.0 °F 30% 30.05 in 10.0 mi South 11.5 mph 21.9 mph N/A   Clear
6:15 PM 76.6 °F 42.8 °F 30% 30.04 in 10.0 mi South 11.5 mph 21.9 mph N/A   Clear
6:35 PM 76.1 °F 43.7 °F 31% 30.03 in 10.0 mi South 16.1 mph 23.0 mph N/A   Clear
6:55 PM 75.0 °F 44.1 °F 33% 30.02 in 10.0 mi South 9.2 mph 19.6 mph N/A   Clear
7:15 PM 73.8 °F 44.4 °F 35% 30.02 in 10.0 mi South 9.2 mph - N/A   Clear
7:35 PM 72.5 °F 44.6 °F 37% 30.02 in 10.0 mi South 8.1 mph - N/A   Clear
7:55 PM 71.6 °F 44.4 °F 38% 30.02 in 10.0 mi South 6.9 mph - N/A   Clear
8:15 PM 70.7 °F 44.1 °F 38% 30.01 in 10.0 mi SSE 5.8 mph - N/A   Clear
8:35 PM 69.8 °F 44.2 °F 40% 30.01 in 10.0 mi SSE 5.8 mph - N/A   Clear
8:55 PM 69.3 °F 45.1 °F 42% 30.01 in 10.0 mi South 8.1 mph - N/A   Clear
9:15 PM 69.1 °F 46.4 °F 44% 30.01 in 10.0 mi South 9.2 mph 16.1 mph N/A   Clear
9:35 PM 68.2 °F 47.3 °F 47% 30.01 in 10.0 mi South 9.2 mph - N/A   Clear
9:55 PM 68.4 °F 48.0 °F 48% 30.02 in 10.0 mi South 10.4 mph 18.4 mph N/A   Clear
10:15 PM 68.0 °F 48.4 °F 49% 30.02 in 10.0 mi South 10.4 mph 17.3 mph N/A   Clear
10:35 PM 67.3 °F 48.6 °F 51% 30.02 in 10.0 mi South 10.4 mph - N/A   Clear
10:55 PM 66.6 °F 48.6 °F 52% 30.02 in 10.0 mi South 10.4 mph - N/A   Clear
11:15 PM 66.2 °F 48.4 °F 53% 30.02 in 10.0 mi South 12.7 mph 17.3 mph N/A   Clear
11:35 PM 65.7 °F 48.4 °F 54% 30.02 in 10.0 mi South 12.7 mph 20.7 mph N/A   Clear